Powrót do katalogu

SL-14 R/B

AktywnyPO
NORAD 22970·ROCKET BODY·🇷🇺 Russia

Wystrzelony Jan 25, 1994 z Plesetsk Cosmodrome

Loading…

Następne Przeloty (najbliższe 24 godziny)

TLE

ŚwieżeSource: Space-Track

Epoka: Sep 14, 2026, 06:33 UTC

1 22970U 94003B   26257.27345523  .00000180  00000-0  43647-3 0  9995
2 22970  82.5654  24.2789 0015746 346.6804  30.8147 13.17011757568711

Śledź SL-14 R/B w czasie rzeczywistym z AllMySat

Download on the App Store